Regional Weather Roundup
Issued by NWS

Home | Current Version | Previous Version | Text Only | Print | Product List | Glossary On
Versions: 1 2 3 4 5 6 7 8 9 10 11 12 13 14 15 16 17 18 19 20 21 22 23 24 25 26 27 28 29 30 31 32 33 34 35 36 37 38 39 40 41 42 43 44 45 46 47 48 49 50
000
ASUS43 KFSD 291310
RWRSD

WEATHER ROUNDUP FOR SOUTH DAKOTA
NATIONAL WEATHER SERVICE SIOUX FALLS SD
800 AM CDT SAT APR 29 2017

NOTE: "FAIR" INDICATES FEW OR NO CLOUDS BELOW 12,000 FEET WITH NO
SIGNIFICANT WEATHER AND/OR OBSTRUCTIONS TO VISIBILITY.


SDZ001>005-009-010-012>017-291400-
NORTHWEST AND NORTH CENTRAL SOUTH DAKOTA

CITY           SKY/WX    TMP DP  RH WIND       PRES   REMARKS
BUFFALO          N/A     36  23  59 CALM      30.18R
FAITH            N/A     34  25  69 W5        30.26R WCI  30
MOBRIDGE       CLOUDY    35  27  72 CALM      30.26R
$$

SDZ012>016-024>037-041>051-057-063-072>074-291400-
SOUTHWEST AND SOUTH CENTRAL SOUTH DAKOTA

CITY           SKY/WX    TMP DP  RH WIND       PRES   REMARKS
RAPID CTY ARPT MOSUNNY   33  24  69 W8        30.25R WCI  26
PIERRE         CLOUDY    33  26  75 CALM      30.28R
CUSTER         CLOUDY    25  16  68 N5        30.19R WCI  19
ELLSWORTH AFB  CLOUDY    31  26  80 N7        30.25R WCI  24
PHILIP         CLOUDY    34  29  82 CALM      30.26R
PINE RIDGE     PTSUNNY   31  29  92 S3        30.24R
SPEARFISH      FAIR      30  21  69 S7        30.25R WCI  23
$$

SDZ004>011-016>023-039-040-291400-
NORTHEAST SOUTH DAKOTA

CITY           SKY/WX    TMP DP  RH WIND       PRES   REMARKS
ABERDEEN       MOSUNNY   33  25  72 CALM      30.32R
WATERTOWN      CLOUDY    34  24  67 CALM      30.28R
BROOKINGS      CLOUDY    38  23  55 E13       30.28R
SISSETON         N/A     35  26  69 CALM      30.30R
$$

SDZ017-020-022-023-036>040-048>070-291400-
SOUTHEAST SOUTH DAKOTA

CITY           SKY/WX    TMP DP  RH WIND       PRES   REMARKS
SIOUX FALLS    CLOUDY    40  28  62 NE9       30.27R
HURON          MOSUNNY   29  24  82 NW3       30.29R
CHAMBERLAIN    MOSUNNY   40  29  64 NW6       30.28R
MITCHELL       CLOUDY    34  26  72 N5        30.28R WCI  30
YANKTON        PTSUNNY   39  27  60 NE8       30.24R
$$

ABBREVIATIONS USED IN REMARKS
   TC - TEMPERATURE IN CELSIUS
  WCI - WIND CHILL INDEX
   HX - HEAT INDEX
  VSB - VISIBILITY




USA.gov is the U.S. government's official web portal to all federal, state and local government web resources and services.